Date,TemperatureHighF,TemperatureAvgF,TemperatureLowF,DewpointHighF,DewpointAvgF,DewpointLowF,HumidityHigh,HumidityAvg,HumidityLow,PressureMaxIn,PressureMinIn,WindSpeedMaxMPH,WindSpeedAvgMPH,GustSpeedMaxMPH,PrecipitationSumIn
2013-1-1,33.4,27.8,12.3,29.9,19.3,7.3,89,71,51,29.90,29.64,30,5,34,0.00
2013-1-2,25.6,14.0,3.8,19.5,7.5,-4.1,94,76,58,30.08,29.86,25,3,25,0.00
2013-1-3,21.7,8.5,-1.0,5.2,-0.1,-5.7,90,67,44,30.09,29.94,17,3,18,0.00
2013-1-4,36.7,22.2,2.0,26.6,16.7,-0.2,96,80,65,29.94,29.74,16,2,18,0.06
2013-1-5,38.4,29.0,16.2,26.6,21.5,14.9,97,75,48,30.23,29.76,26,3,28,0.01
2013-1-6,40.7,27.6,15.8,31.2,24.9,14.1,99,90,68,30.19,29.89,17,1,18,0.04
2013-1-7,34.8,25.6,11.9,29.8,21.1,7.0,100,85,52,30.36,29.92,14,2,20,0.02
2013-1-8,43.5,26.0,10.8,30.5,21.7,9.6,99,86,56,30.33,30.20,18,1,18,0.10
2013-1-9,41.9,29.9,16.1,35.0,26.9,15.4,99,90,64,30.37,29.92,19,1,20,0.03
2013-1-10,44.1,38.1,26.3,32.2,28.0,20.4,96,68,53,30.51,29.94,37,7,37,0.00
2013-1-11,39.7,30.4,20.7,33.8,28.2,20.1,100,92,71,30.49,30.19,8,0,8,0.19
2013-1-12,41.9,36.6,33.3,41.3,36.5,33.1,100,100,99,30.19,30.09,5,0,5,0.05
2013-1-13,45.7,40.7,35.4,45.3,40.7,35.2,100,100,99,30.12,29.93,9,0,9,0.01
2013-1-14,57.2,44.9,36.3,52.3,41.3,29.4,100,88,59,30.23,29.78,23,3,23,0.00
2013-1-15,40.9,33.5,27.2,31.1,28.5,22.6,99,83,61,30.29,30.19,11,1,11,0.00
2013-1-16,33.4,30.7,28.1,32.7,30.1,27.4,100,98,89,30.22,29.78,7,0,7,0.00
2013-1-17,39.3,29.8,23.9,37.4,25.7,11.7,100,86,54,30.08,29.77,19,2,19,0.17
2013-1-18,26.3,16.0,8.5,13.7,3.5,-5.1,92,59,42,30.42,30.02,17,4,26,0.00
2013-1-19,44.4,31.9,15.2,29.2,22.8,10.2,97,70,49,30.33,29.82,21,2,28,0.18
2013-1-20,49.7,37.0,26.5,33.7,26.6,12.5,97,68,35,29.87,29.47,38,6,38,0.08
2013-1-21,27.7,22.9,16.5,22.1,11.5,2.8,97,63,47,30.04,29.76,23,2,24,0.00
2013-1-22,24.9,17.9,8.0,20.9,11.6,0.2,98,79,42,30.02,29.72,22,4,24,0.00
2013-1-23,11.0,5.8,-0.6,2.7,-5.7,-13.7,79,60,43,30.10,30.00,26,4,27,0.00
2013-1-24,15.4,5.8,-3.6,-3.2,-7.8,-12.4,70,54,41,30.16,30.01,29,7,30,0.00
2013-1-25,20.8,12.9,4.9,7.0,-1.1,-11.4,68,54,39,30.25,30.03,27,5,32,0.00
2013-1-26,22.0,14.8,7.3,12.6,5.2,-2.8,95,68,40,30.17,29.97,26,5,30,0.00
2013-1-27,27.0,17.6,11.7,6.9,2.5,-1.8,77,53,33,30.42,30.16,23,6,25,0.01
2013-1-28,29.6,21.6,11.6,23.0,12.8,0.9,97,71,40,30.41,30.00,11,1,13,0.00
2013-1-29,36.7,29.5,23.0,33.0,28.3,22.0,99,95,85,30.17,30.01,5,0,6,0.13
2013-1-30,56.9,41.0,32.4,56.4,40.9,31.8,100,100,98,30.12,29.40,17,2,17,0.31
2013-1-31,60.2,45.6,29.7,59.0,38.1,14.6,100,77,49,29.51,28.87,44,8,51,0.27